470  
ASUS44 KLIX 241513  
RWRLIX  
NEW ORLEANS REGIONAL WEATHER ROUNDUP  
NATIONAL WEATHER SERVICE NEW ORLEANS LA  
1000 AM CDT SUN SEP 24 2017  
 
NOTE: "FAIR" INDICATES FEW OR NO CLOUDS BELOW 12,000 FEET WITH NO  
SIGNIFICANT WEATHER AND/OR S TO VISIBILITY
.  
SKY/WX - SKY CONDITION AND SIGNIFICANT WEATHER.  
TMP - AIR TEMPERATURE. DP - DEWPOINT TEMPERATURE.  
RH - RELATIVE HUMIDITY. PRES - PRESSURE.  
HI - HEAT INDEX. WCI - WIND CHILL INDEX.  
 
* THESE STATIONS ARE NOT NWS OR FAA STATIONS AND ARE NOT UNDER  
NWS QUALITY CONTROL.  
 
LAZ038-040-048-061>063-065>067-069-241600-  
SOUTHEAST LOUISIANA  
 
CITY SKY/WX TMP DP RH WIND PRES REMARKS
 
N.O. INTL ARPT MOSUNNY 83 70 64 E10 29.95R  
N.O. LAKEFRONT SUNNY 82 71 69 E9 29.96R  
N.O. DOWNTOWN* N/A 81 71 71 VRB6 29.96S  
RESERVE* N/A 85 71 63 E8 29.96S  
SLIDELL MOSUNNY 79 69 71 NE6 29.96R  
BATON ROUGE SUNNY 81 68 64 NE9 29.96R  
BOOTHVILLE LGT RAIN 77 74 90 E5 29.95R FOG  
BELLE CHASSE NOT AVBL  
BOGALUSA* N/A 81 69 67 E3 29.99S  
GALLIANO* PTSUNNY 80 68 67 E12G17 29.95R  
NEW ROADS* N/A 81 67 63 E5 29.96R  
GONZALES* N/A 81 69 65 E3 29.95R  
HAMMOND* SUNNY 81 64 57 E6 29.97R  
HOUMA* MOSUNNY 81 75 83 NE12 29.95R  
PORT FOURCHON* HAZE 77 72 83 E16G28 29.94S VSB 1  
 

 
 
MSZ070-080>082-241600-  
SOUTHERN MISSISSIPPI  
 
CITY SKY/WX TMP DP RH WIND PRES REMARKS
 
MCCOMB SUNNY 80 67 64 VRB6 29.99R  
GULFPORT SUNNY 81 72 74 E8 29.96R  
BILOXI MOSUNNY 80 72 76 NE7 29.97R  
PASCAGOULA PTSUNNY 78 71 79 E10G17 29.99R  
STENNIS ARPT* MOSUNNY 79 72 78 VRB5 29.96S  
 

 
 
COASTAL OBSERVATIONS  
LAKE AND NEARSHORE STATIONS  
 
STATION/POSITION TIME TEMP WIND PRES WAVE
 
AIR SEA DIR/SP/G HT/PER  
(UTC) (F) (DEG/KT/KT) (MB) (FT/S)  
PASCAGOULA 1448 76 120/ 19/ 28 1015.1  
WAVELAND YACHT 1442 78 82 100/ 4/ 5 1014.6  
GRAND ISLE 1448 80 85 130/ 5/ 11 1013.6  
SOUTHWEST PASS 1448 84 70/ 15/ 18 N/A  
NEW CANAL 1448 80 82 70/ 12/ 13 1014.1  
SHELL BEACH 1442 81 85 130/ 7/ 9 1014.2  
 
OFFSHORE STATIONS  
 
STATION/POSITION TIME TEMP WIND PRES WAVE
 
AIR SEA DIR/SP/G HT/PER  
(UTC) (F) (DEG/KT/KT) (MB) (FT/S)  
64 S DAUPHIN ISL 1450 76 83 80/ 23/ 27 1014.2 4/ 6  
 

 
 
 
 
CLICK HERE TO GO TO PREVIOUS BULLETINS.

The Nexlab LA Page
The Nexlab MS Page Main Text Page